Location: Bun Machan
(52.1403°N, 7.3744°W)
Time: 18:14:02
(UTC+00:00)

AQUA - Pass Details

Date: 14 July 2020
Orbit: 701 x 704 km, 98.2° (Epoch: 12 August)

Event Time Altitude Azimuth Distance (km) Brightness Sun altitude
Rises 03:03:34 0° 12° (NNE) 3,108 8.6 -9.5°
Reaches altitude 10° 03:05:51 10° 9° (N) 2,184 7.5 -9.3°
Maximum altitude 03:10:33 59° 290° (WNW) 814 4.1 -8.9°
Enters shadow 03:15:07 11° 212° (SSW) 2,127 5.6 -8.4°
